Regional Weather Roundup
Issued by NWS

Home | Current Version | Previous Version | Graphics & Text | Print | Product List | Glossary On
Versions: 1 2 3 4 5 6 7 8 9 10 11 12 13 14 15 16 17 18 19 20 21 22 23 24 25 26 27 28 29 30 31 32 33 34 35 36 37 38 39 40 41 42 43 44 45 46 47 48 49
000
ASUS45 KCYS 051410
RWRWY

WYOMING REGIONAL WEATHER ROUNDUP
NATIONAL WEATHER SERVICE CHEYENNE WY
700 AM MST FRI FEB 05 2016

NOTE:  "FAIR" INDICATES FEW OR NO CLOUDS BELOW 12,000 FEET
WITH NO SIGNIFICANT WEATHER AND/OR OBSTRUCTIONS TO VISIBILITY.

WYZ001-051500-
YELLOWSTONE NATIONAL PARK

CITY           SKY/WX    TMP DP  RH WIND       PRES   REMARKS
LK YELLOWSTONE   N/A      1  -3  83 CALM      30.37R
W YELLOWSTONE  NOT AVBL

$$
WYZ002>013-054>058-071-098>099-051500-
NORTHERN WYOMING

CITY           SKY/WX    TMP DP  RH WIND       PRES   REMARKS
JACKSON        PTCLDY     1   0  92 N12       30.41S WCI -15
CODY           FAIR      30   9  40 W16G32    30.26S WCI  19
GREYBULL       FAIR      13  10  88 SE3       30.34R
WORLAND        FAIR       8   4  83 S7        30.33R WCI  -3
SHERIDAN       CLEAR     30  14  51 N6        30.24R WCI  24
BUFFALO        FAIR      28  11  48 NW10      30.23R WCI  19
GILLETTE       CLOUDY    26  19  74 W12       30.22R WCI  16
HULETT         CLOUDY    30  27  86 NW8G18    30.21R WCI  23
NEWCASTLE      CLOUDY    30  25  80 NW18G26   30.19R WCI  18

$$
WYZ014>020-022>026-101>103-051500-
CENTRAL WYOMING

CITY           SKY/WX    TMP DP  RH WIND       PRES   REMARKS
BIG PINEY      FAIR      14   7  73 N16       30.35S WCI  -2
PINEDALE       FAIR      14   9  79 NW28      30.33R WCI  -6
DUBOIS         FAIR      19   9  63 W20G29    30.29S WCI   4
LANDER         FAIR      16  -1  47 VRB5      30.30R WCI   9
RIVERTON       FAIR      11   1  64 SW7       30.31R WCI   0
CASPER         FAIR      17   6  62 SW17      30.28R WCI   1
DOUGLAS        FAIR      17   8  67 NW12      30.28R WCI   4

$$
WYZ021-027>030-104>119-051500-
SOUTHERN WYOMING

CITY           SKY/WX    TMP DP  RH WIND       PRES   REMARKS
EVANSTON       CLOUDY    19  14  81 SW9       30.43R WCI   8
FORT BRIDGER   CLOUDY    19  19 100 W18       30.45R WCI   4
ROCK SPRINGS   FAIR      12   8  84 W16       30.37R WCI  -5
DIXON          FLURRIES   4   1  87 CALM      30.41R
RAWLINS        FAIR      11   5  77 SW17      30.31R WCI  -6
SARATOGA       FAIR      10   7  85 S6        30.32R WCI   1
LARAMIE        FAIR      13   3  64 E5        30.23R WCI   5
CHEYENNE       FAIR      16   6  65 W13       30.23R WCI   2
TORRINGTON     FAIR      20  10  65 NW13      30.26R WCI   7
PINE BLUFFS    FAIR      21  10  63 W16       30.24S WCI   7

$$



USA.gov is the U.S. government's official web portal to all federal, state and local government web resources and services.